EW5295 Weather Reports


time (UTC)temp
F
wind
direction
speed
knots
gust
knots
rain 1hr
in
rain 24hr
in
rain mn
in
humidity
%
barometer
mb
20260905164505 56 158 0.0 0.0 0.00 0.15 0.14 95 1016.8
20260905163004 55 158 0.0 0.0 0.00 0.15 0.14 96 1016.8
20260905161504 55 136 0.0 0.9 0.00 0.15 0.14 96 1016.8
20260905160004 55 133 0.0 0.0 0.00 0.15 0.14 97 1016.7
20260905154501 55 269 0.0 0.0 0.00 0.15 0.14 97 1016.7
20260905153001 55 269 0.0 0.0 0.00 0.15 0.14 97 1016.7
20260905151628 54 270 0.0 0.0 0.00 0.15 0.14 97 1016.6
20260905150057 0 0.0 0.0 0.00 0.15 0.14 1016.6
20260905144545 0 0.0 0.0 0.00 0.15 0.14 1016.6
20260905143037 0 0.0 0.0 0.00 0.15 0.14 1016.6
20260905141532 0 0.0 0.0 0.00 0.15 0.14 1016.5
20260905140027 0 0.0 0.0 0.00 0.15 0.14 1016.4
20260905134532 0 0.0 0.0 0.00 0.15 0.14 1016.4
20260905133019 0 0.0 0.0 0.00 0.15 0.14 1016.3
20260905131515 0 0.0 0.0 0.00 0.15 0.14 1016.4
20260905130011 0 0.0 0.0 0.00 0.15 0.14 1016.2
20260905124556 0 0.0 0.0 0.00 0.15 0.14 1016.1
20260905123107 0 0.0 0.0 0.00 0.15 0.14 1016.0
20260905121549 52 285 0.0 0.0 0.00 0.16 0.14 96 1015.9
20260905120048 52 285 0.0 0.0 0.00 0.16 0.14 96 1015.9
20260905114549 52 285 0.0 0.0 0.00 0.16 0.14 96 1015.9
20260905113046 52 285 0.0 0.0 0.00 0.16 0.14 96 1015.9
20260905111554 52 285 0.0 0.0 0.00 0.19 0.14 96 1015.8
20260905110046 53 285 0.0 0.0 0.00 0.19 0.14 96 1015.8
20260905104533 53 285 0.0 0.0 0.00 0.19 0.14 96 1015.8
20260905103042 53 285 0.0 0.0 0.00 0.19 0.14 96 1016.0
20260905101533 53 285 0.0 0.0 0.01 0.19 0.14 96 1016.0
20260905100045 54 285 0.0 0.0 0.01 0.19 0.14 96 1016.0
20260905094532 54 285 0.0 0.0 0.01 0.19 0.14 96 1016.0
20260905093031 54 285 0.0 0.0 0.01 0.19 0.14 96 1016.0
20260905091536 54 285 0.0 0.0 0.00 0.18 0.13 96 1015.9
20260905090028 53 285 0.0 0.0 0.00 0.18 0.13 96 1015.9
20260905084516 53 287 0.0 0.0 0.00 0.18 0.13 96 1015.8
20260905083017 53 287 0.0 0.0 0.00 0.18 0.13 96 1015.6
20260905081518 53 287 0.0 0.0 0.00 0.18 0.13 96 1015.6
20260905080024 53 287 0.0 0.0 0.00 0.18 0.13 96 1015.5
20260905074512 53 287 0.0 0.0 0.00 0.18 0.13 96 1015.4
20260905073020 53 287 0.0 0.0 0.00 0.18 0.13 96 1015.4
20260905071509 53 287 0.0 0.0 0.00 0.18 0.13 96 1015.4
20260905070009 52 287 0.0 0.0 0.00 0.18 0.13 96 1015.4
20260905064507 52 287 0.0 0.0 0.00 0.18 0.13 96 1015.3
20260905063049 52 287 0.0 0.0 0.00 0.18 0.13 96 1015.2
20260905061554 52 287 0.0 0.0 0.00 0.18 0.13 95 1014.9
20260905060045 52 287 0.0 0.0 0.00 0.18 0.13 95 1014.9
20260905054536 52 287 0.0 0.0 0.00 0.18 0.13 95 1014.9
20260905053029 53 287 0.0 0.0 0.00 0.18 0.13 95 1015.0
20260905051528 53 287 0.0 0.0 0.00 0.18 0.13 95 1014.9
20260905050028 54 287 0.0 0.0 0.00 0.18 0.13 95 1015.0
20260905044535 54 287 0.0 0.0 0.00 0.18 0.13 95 1014.9
20260905043027 54 287 0.0 0.0 0.00 0.18 0.13 95 1015.0
20260905041523 53 287 0.0 0.0 0.00 0.18 0.13 94 1014.9
20260905040011 54 287 0.0 0.0 0.00 0.18 0.13 94 1014.7
20260905034508 54 287 0.0 0.0 0.00 0.18 0.13 94 1014.5
20260905033004 55 287 0.0 0.0 0.00 0.18 0.13 94 1014.4
20260905031502 55 288 0.0 0.0 0.00 0.18 0.13 94 1014.2
20260905024559 56 288 0.0 0.0 0.01 0.18 0.13 93 1014.0
20260905023057 56 288 0.0 0.0 0.01 0.18 0.13 92 1014.1
20260905021556 56 288 0.0 0.0 0.01 0.18 0.13 92 1014.0
20260905020050 57 288 0.0 0.0 0.03 0.18 0.13 91 1013.8
20260905014539 57 288 0.0 0.9 0.02 0.17 0.12 89 1013.7
20260905013037 58 288 0.0 0.9 0.02 0.17 0.12 89 1013.6
20260905011554 58 314 0.0 0.0 0.03 0.17 0.12 89 1013.5
20260905010040 59 161 0.0 0.0 0.03 0.15 0.10 89 1013.5
20260905004536 58 161 0.0 0.0 0.05 0.15 0.10 89 1013.3
20260905003044 58 161 0.0 0.9 0.07 0.15 0.10 91 1013.3
20260905001536 58 205 0.0 0.0 0.09 0.14 0.09 91 1013.6
20260905000019 58 218 0.0 0.0 0.07 0.12 0.07 90 1013.6
20260904234525 58 219 0.0 0.9 0.05 0.10 0.05 87 1013.5
20260904233034 59 141 0.0 0.9 0.03 0.08 0.03 85 1013.4
20260904231512 60 287 0.0 1.7 0.00 0.05 0.00 81 1013.3
20260904230023 61 273 0.0 2.6 0.00 0.05 0.00 73 1013.1
20260904224504 62 325 0.0 2.6 0.00 0.05 0.00 71 1012.9
20260904223001 64 315 0.0 0.9 0.00 0.05 0.00 69 1013.0
20260904221559 64 162 0.0 0.9 0.00 0.05 0.00 68 1012.8
20260904220050 64 126 0.0 0.9 0.00 0.05 0.00 66 1012.7
20260904214539 64 224 0.0 0.9 0.00 0.05 0.00 70 1012.7
20260904213021 64 153 0.0 0.9 0.00 0.05 0.00 68 1012.6
20260904211518 63 164 0.0 0.9 0.00 0.07 0.05 74 1012.5
20260904210005 63 177 0.0 0.9 0.00 0.07 0.05 76 1012.4
20260904204504 64 153 0.0 0.9 0.00 0.07 0.05 68 1012.4
20260904203003 64 187 0.0 0.9 0.00 0.07 0.05 70 1012.3
20260904201622 63 143 0.0 0.9 0.00 0.11 0.05 73 1012.3
20260904200101 63 186 0.0 0.0 0.00 0.11 0.05 71 1012.3
20260904194559 63 155 0.0 0.9 0.00 0.11 0.05 68 1012.4
20260904193102 63 300 0.0 1.7 0.00 0.11 0.05 70 1012.5
20260904191555 63 307 0.0 1.7 0.00 0.11 0.05 74 1012.6
20260904190041 62 140 0.0 0.9 0.00 0.11 0.05 77 1012.6
20260904184542 60 290 0.0 2.6 0.00 0.11 0.05 79 1012.6
20260904183034 59 300 0.0 1.7 0.00 0.11 0.05 84 1012.6
20260904181538 58 300 0.0 0.9 0.01 0.11 0.05 85 1012.5
20260904180035 58 326 0.0 1.7 0.01 0.11 0.05 89 1012.3
20260904174530 57 159 0.0 0.0 0.01 0.11 0.05 89 1012.2
20260904173028 57 178 0.0 0.0 0.01 0.11 0.05 89 1012.2
20260904171538 56 135 0.0 0.9 0.00 0.10 0.04 90 1012.2
20260904170009 56 135 0.0 0.0 0.00 0.10 0.04 91 1012.1